DW4558 Weather Reports


time (UTC)temp
F
wind
direction
speed
knots
gust
knots
rain 1hr
in
rain 24hr
in
rain mn
in
humidity
%
barometer
mb
20260505200020 67 285 13.0 28.7 0.00 0.10 0.10 76 996.4
20260505194520 66 235 12.2 23.5 0.00 0.10 0.10 81 996.7
20260505193017 63 258 8.7 25.2 0.01 0.10 0.10 86 997.3
20260505191517 62 244 13.0 23.5 0.02 0.10 0.10 91 997.4
20260505190014 60 231 7.8 22.6 0.06 0.10 0.10 94 997.7
20260505184514 58 242 9.6 18.2 0.07 0.10 0.10 94 998.0
20260505183017 57 211 5.2 12.2 0.07 0.09 0.09 93 998.4
20260505181514 58 257 8.7 15.6 0.08 0.08 0.08 90 998.7
20260505180017 60 269 8.7 12.2 0.04 0.04 0.04 87 998.5
20260505174518 61 235 6.1 13.0 0.03 0.03 0.03 85 998.1
20260505173017 63 296 15.6 25.2 0.02 0.02 0.02 74 998.6
20260505171516 67 277 9.6 26.1 0.00 0.00 0.00 64 998.0
20260505170010 68 215 12.2 26.9 0.00 0.00 0.00 63 997.8
20260505164508 67 240 15.6 25.2 0.00 0.00 0.00 61 998.4
20260505163006 70 231 13.9 27.8 0.00 0.00 0.00 57 998.5
20260505161502 67 215 16.5 31.3 0.00 0.00 0.00 59 999.0
20260505153106 69 245 12.2 24.3 0.00 0.00 0.00 53 999.1
20260505151602 68 276 20.0 30.4 0.00 0.00 0.00 55 999.0
20260505124534 58 288 4.3 8.7 0.00 0.00 0.00 69 1000.4
20260505123023 57 284 4.3 8.7 0.00 0.00 0.00 69 1000.5
20260505121519 57 298 3.5 7.0 0.00 0.00 0.00 70 1000.5
20260505120017 56 269 7.0 11.3 0.00 0.00 0.00 72 1000.7
20260505114510 54 295 2.6 7.0 0.00 0.00 0.00 80 1000.7
20260505113006 51 82 2.6 4.3 0.00 0.00 0.00 92 1000.6
20260505111503 47 200 1.7 4.3 0.00 0.00 0.00 95 1000.8
20260505101555 40 104 2.6 6.1 0.00 0.00 0.00 96 1001.4
20260505100054 39 113 2.6 7.0 0.00 0.00 0.00 95 1001.5
20260505094549 39 125 3.5 7.0 0.00 0.00 0.00 95 1001.4
20260505093048 39 87 3.5 7.0 0.00 0.00 0.00 94 1001.4
20260505091605 39 101 4.3 6.1 0.00 0.00 0.00 94 1001.5
20260505090045 39 91 4.3 6.1 0.00 0.00 0.00 94 1001.7
20260505084540 39 82 3.5 7.0 0.00 0.00 0.00 93 1001.8
20260505083039 40 87 3.5 6.1 0.00 0.00 0.00 93 1001.8
20260505081539 40 98 3.5 5.2 0.00 0.00 0.00 92 1001.8
20260505080034 41 102 5.2 7.8 0.00 0.00 0.00 91 1001.8
20260505074530 42 127 7.0 8.7 0.00 0.00 0.00 91 1001.9
20260505073031 42 116 6.1 8.7 0.00 0.00 0.00 90 1001.7
20260505071524 44 122 3.5 7.8 0.00 0.00 0.00 89 1002.1
20260505070022 45 125 5.2 7.0 0.00 0.00 0.00 87 1002.3
20260505064520 46 138 5.2 9.6 0.00 0.00 0.00 87 1002.5
20260505063018 44 123 6.1 8.7 0.00 0.00 0.00 90 1002.8
20260505061515 43 138 4.3 7.0 0.00 0.00 0.00 89 1003.0
20260505060014 43 109 4.3 6.1 0.00 0.00 0.00 89 1003.1
20260505054512 43 163 3.5 6.1 0.00 0.00 0.00 88 1003.5
20260505053011 43 119 1.7 4.3 0.00 0.00 0.00 87 1003.5
20260505051530 43 120 2.6 7.0 0.00 0.00 0.00 86 1003.5
20260505041501 44 103 1.7 3.5 0.00 0.00 0.00 85 1004.0
20260505040057 45 141 2.6 6.1 0.00 0.00 0.00 84 1003.9
20260505034555 46 171 2.6 3.5 0.00 0.00 0.00 82 1004.1
20260505033056 47 190 1.7 7.0 0.00 0.00 0.00 81 1004.1
20260505031558 47 216 4.3 8.7 0.00 0.00 0.00 80 1004.2
20260505030054 47 230 3.5 7.0 0.00 0.00 0.00 79 1004.3
20260505024555 47 234 6.1 9.6 0.00 0.00 0.00 78 1004.5
20260505023056 48 214 5.2 13.0 0.00 0.00 0.00 77 1004.6
20260505021553 48 265 9.6 16.5 0.00 0.00 0.00 77 1004.6
20260505014553 47 225 10.4 15.6 0.00 0.00 0.00 77 1004.6
20260505013100 47 223 7.0 13.9 0.00 0.00 0.00 77 1004.7
20260505011553 48 244 9.6 15.6 0.00 0.00 0.00 76 1004.8
20260505010108 48 262 9.6 20.9 0.00 0.00 0.00 77 1004.6
20260505004550 48 282 9.6 16.5 0.00 0.00 0.00 77 1004.5
20260505003055 48 249 7.8 14.8 0.00 0.00 0.00 76 1004.3
20260505001549 48 272 9.6 17.4 0.00 0.00 0.00 76 1003.8
20260505000049 48 236 8.7 18.2 0.00 0.00 0.00 75 1003.7
20260504234548 48 241 11.3 20.9 0.00 0.00 0.00 75 1003.5
20260504233104 48 265 13.9 21.7 0.00 0.00 0.00 74 1003.3
20260504231549 48 243 12.2 21.7 0.00 0.00 0.00 74 1003.0
20260504230054 48 236 9.6 17.4 0.00 0.00 0.00 74 1002.7
20260504224550 48 286 12.2 20.0 0.00 0.00 0.00 74 1002.6
20260504223046 48 239 9.6 23.5 0.00 0.00 0.00 74 1002.5
20260504221546 49 255 12.2 22.6 0.00 0.00 0.00 74 1002.4
20260504220045 49 266 13.9 23.5 0.00 0.00 0.00 74 1002.6
20260504214553 50 252 18.2 28.7 0.00 0.00 0.00 71 1002.5
20260504213045 51 271 18.2 28.7 0.00 0.00 0.00 69 1002.5
20260504211544 52 277 10.4 23.5 0.00 0.00 0.00 69 1002.6
20260504210045 51 265 14.8 25.2 0.00 0.00 0.00 68 1002.4
20260504204548 52 360 13.0 28.7 0.00 0.00 0.00 65 1002.3
20260504203055 52 281 14.8 26.9 0.00 0.00 0.00 68 1002.3
20260504201541 52 360 12.2 22.6 0.00 0.00 0.00 69 1002.0